Location: Narrabri
(30.3170°S, 149.7830°E)
Time: 22:09:30
(UTC+10:00)

N. Korean satellite - Visible Passes

Search period start: 24 May 2018 00:00
Search period end: 03 June 2018 00:00
Orbit: 458 x 514 km, 97.2° (Epoch: 23 May)

Date Brightness Start Highest point End Pass type
(mag) Time Alt. Az. Time Alt. Az. Time Alt. Az.
24 May 8.4 05:26:46 10° NE 05:30:11 34° ESE 05:33:39 10° S visible
24 May 6.6 18:33:03 13° S 18:36:16 78° WSW 18:39:49 10° NNW visible
25 May 9.6 05:03:54 10° ENE 05:06:21 17° ESE 05:08:49 10° SSE visible
25 May 6.9 18:08:53 11° SSE 18:12:15 43° E 18:15:38 10° N visible
26 May 6.9 06:11:52 10° N 06:15:31 49° W 06:19:14 10° SSW visible
26 May 8.0 17:45:29 10° SE 17:48:09 19° E 17:50:46 10° NE visible
26 May 9.4 19:19:07 10° SSW 19:21:26 17° WSW 19:23:47 10° WNW visible
27 May 7.0 05:47:46 10° NNE 05:51:31 71° ESE 05:55:19 10° S visible
27 May 8.1 18:54:56 14° SSW 18:57:35 35° WSW 19:00:49 10° NW visible
28 May 8.5 05:24:14 10° NE 05:27:36 31° ESE 05:31:00 10° S visible
28 May 6.5 18:30:45 15° S 18:33:38 85° W 18:37:09 10° NNW visible
29 May 9.6 05:01:26 10° ENE 05:03:45 16° ESE 05:06:04 10° SSE visible
29 May 7.0 18:06:33 12° SSE 18:09:35 39° E 18:12:53 10° N visible
30 May 6.8 06:09:12 10° N 06:12:53 53° W 06:16:37 10° SSW visible
30 May 8.1 17:42:59 10° SE 17:45:28 18° E 17:47:54 10° NE visible
30 May 9.3 19:16:44 12° SSW 19:18:48 18° WSW 19:21:13 10° WNW visible
31 May 7.1 05:45:09 10° NNE 05:48:53 66° ESE 05:52:40 10° S visible
31 May 7.9 18:52:30 17° SSW 18:54:54 38° WSW 18:58:10 10° NW visible
01 Jun 8.6 05:21:39 10° NE 05:24:57 29° ESE 05:28:17 10° SSE visible
01 Jun 6.4 18:28:17 17° SSE 18:30:56 88° ENE 18:34:25 10° N visible
02 Jun 9.7 04:58:58 10° ENE 05:01:06 15° ESE 05:03:15 10° SE visible
02 Jun 7.1 18:04:03 13° SSE 18:06:53 35° E 18:10:05 10° NNE visible
